Location: Bottens
(46.6171°N, 6.6605°E)
Time: 17:11:10
(UTC+00:00)

CZ-4C R/B - Pass Details

Date: 20 June 2021
Orbit: 606 x 1396 km, 63.4° (Epoch: 03 August)

Event Time Altitude Azimuth Distance (km) Brightness Sun altitude
Exits shadow 02:56:31 - 210° (SSW) 2,361 3.9 -6.5°
Reaches altitude 10° 02:57:06 10° 210° (SSW) 2,130 3.7 -6.4°
Maximum altitude 03:01:54 75° 126° (SE) 803 2.2 -5.8°
Drops below altitude 10° 03:07:46 10° 42° (NE) 2,583 6.6 -5.1°
Sets 03:10:34 0° 41° (NE) 3,661 8.0 -4.7°
